When you browse on this site, cookies collect data to enhance your experience and personalize the content and advertising you see.
Visit our Privacy Policy to learn more. By continuing to use the site, you agree to this use of cookies and data.
  • In Germany
  • List of Countries
  • For 7 days
  • Water Temperature
  • Satellite Maps
  • Weather Map
  • Weather Widgets
  • user-avatar
    Login

    Hourly Weather Hobart

    Today, 17 June, Monday

    Time Temperature Precipitation Wind Pressure Humidity
    00:00 +5°C° 0 mm 2 mps 751 mmHg 90%
    01:00 +4°C° 0 mm 2 mps 751 mmHg 90%
    02:00 +4°C° 0 mm 2 mps 750 mmHg 89%
    03:00 +4°C° 0 mm 2 mps 750 mmHg 88%
    04:00 +3°C° 0 mm 3 mps 750 mmHg 87%
    05:00 +4°C° 0 mm 2 mps 750 mmHg 88%
    06:00 +5°C° 0 mm 2 mps 750 mmHg 90%
    07:00 +5°C° 0 mm 2 mps 750 mmHg 91%
    08:00 +6°C° 0 mm 2 mps 750 mmHg 87%
    09:00 +7°C° 0 mm 2 mps 750 mmHg 82%
    10:00 +9°C° 0 mm 2 mps 750 mmHg 77%
    11:00 +10°C° 0 mm 2 mps 750 mmHg 72%
    12:00 +13°C° 0 mm 2 mps 749 mmHg 67%
    13:00 +13°C° 0 mm 3 mps 749 mmHg 62%
    14:00 +14°C° 0 mm 2 mps 748 mmHg 66%
    15:00 +13°C° 0 mm 2 mps 748 mmHg 70%
    16:00 +12°C° 0 mm 2 mps 748 mmHg 74%
    17:00 +10°C° 0 mm 2 mps 747 mmHg 79%
    18:00 +10°C° 0 mm 3 mps 747 mmHg 83%
    19:00 +9°C° 0 mm 3 mps 747 mmHg 87%
    20:00 +8°C° 0 mm 3 mps 747 mmHg 86%
    21:00 +8°C° 0 mm 3 mps 747 mmHg 85%
    22:00 +8°C° 0 mm 3 mps 747 mmHg 84%
    23:00 +8°C° 0 mm 3 mps 746 mmHg 82%

    Tomorrow, 18 June, Tuesday

    Time Temperature Precipitation Wind Pressure Humidity
    00:00 +8°C° 0 mm 3 mps 746 mmHg 81%
    01:00 +8°C° 0 mm 3 mps 745 mmHg 80%
    02:00 +8°C° 0 mm 3 mps 745 mmHg 79%
    03:00 +8°C° 0 mm 3 mps 744 mmHg 78%
    04:00 +8°C° 0 mm 3 mps 744 mmHg 78%
    05:00 +8°C° 0 mm 3 mps 743 mmHg 78%
    06:00 +8°C° 0 mm 3 mps 743 mmHg 78%
    07:00 +8°C° 0 mm 3 mps 743 mmHg 79%
    08:00 +9°C° 0 mm 3 mps 742 mmHg 77%
    09:00 +10°C° 0 mm 3 mps 742 mmHg 75%
    10:00 +11°C° 0 mm 3 mps 742 mmHg 73%
    11:00 +10°C° 0.5 mm 3 mps 742 mmHg 76%
    12:00 +10°C° 0.5 mm 3 mps 742 mmHg 79%
    13:00 +9°C° 0.5 mm 3 mps 742 mmHg 82%
    14:00 +9°C° 1.8 mm 3 mps 743 mmHg 84%
    15:00 +8°C° 1.8 mm 3 mps 744 mmHg 87%
    16:00 +6°C° 1.8 mm 4 mps 744 mmHg 89%
    17:00 +6°C° 0.4 mm 4 mps 745 mmHg 89%
    18:00 +6°C° 0.4 mm 4 mps 746 mmHg 89%
    19:00 +5°C° 0.4 mm 4 mps 747 mmHg 88%
    20:00 +5°C° 0 mm 4 mps 748 mmHg 89%
    21:00 +4°C° 0 mm 4 mps 748 mmHg 90%
    22:00 +3°C° 0 mm 3 mps 749 mmHg 91%
    23:00 +3°C° 0 mm 3 mps 749 mmHg 91%

    Day after tomorrow, 19 June, Wednesday

    Time Temperature Precipitation Wind Pressure Humidity
    00:00 +3°C° 0 mm 3 mps 750 mmHg 91%
    01:00 +2°C° 0 mm 3 mps 751 mmHg 91%
    02:00 +2°C° 0 mm 3 mps 751 mmHg 91%
    03:00 +2°C° 0 mm 3 mps 751 mmHg 91%
    04:00 +2°C° 0 mm 3 mps 751 mmHg 91%
    05:00 +1°C° 0 mm 3 mps 751 mmHg 91%
    06:00 +1°C° 0 mm 3 mps 752 mmHg 91%
    07:00 +1°C° 0 mm 3 mps 753 mmHg 91%
    08:00 +2°C° 0 mm 3 mps 753 mmHg 88%
    09:00 +4°C° 0 mm 2 mps 753 mmHg 85%
    10:00 +5°C° 0 mm 2 mps 753 mmHg 82%
    11:00 +6°C° 0 mm 2 mps 753 mmHg 76%
    12:00 +7°C° 0 mm 3 mps 753 mmHg 71%
    13:00 +8°C° 0 mm 3 mps 753 mmHg 66%
    14:00 +7°C° 0 mm 2 mps 753 mmHg 69%
    15:00 +7°C° 0 mm 2 mps 753 mmHg 72%
    16:00 +6°C° 0 mm 2 mps 753 mmHg 74%
    17:00 +6°C° 0 mm 2 mps 754 mmHg 78%
    18:00 +5°C° 0 mm 2 mps 754 mmHg 83%
    19:00 +4°C° 0 mm 2 mps 754 mmHg 87%
    20:00 +3°C° 0 mm 2 mps 754 mmHg 89%
    21:00 +3°C° 0 mm 2 mps 754 mmHg 90%
    22:00 +2°C° 0 mm 2 mps 754 mmHg 92%
    23:00 +2°C° 0 mm 2 mps 754 mmHg 93%

    20 June, Thursday

    Time Temperature Precipitation Wind Pressure Humidity
    00:00 +2°C° 0 mm 2 mps 754 mmHg 93%
    01:00 +2°C° 0 mm 2 mps 754 mmHg 94%
    02:00 +2°C° 0 mm 2 mps 754 mmHg 94%
    03:00 +2°C° 0 mm 2 mps 754 mmHg 95%
    04:00 +2°C° 0 mm 2 mps 754 mmHg 95%
    05:00 +2°C° 0 mm 2 mps 754 mmHg 94%
    06:00 +2°C° 0 mm 2 mps 754 mmHg 94%
    07:00 +2°C° 0 mm 2 mps 754 mmHg 93%
    08:00 +3°C° 0 mm 2 mps 754 mmHg 89%
    09:00 +4°C° 0 mm 2 mps 754 mmHg 85%
    10:00 +5°C° 0 mm 2 mps 754 mmHg 81%
    11:00 +5°C° 0 mm 3 mps 753 mmHg 75%
    12:00 +7°C° 0 mm 3 mps 753 mmHg 70%
    13:00 +8°C° 0 mm 4 mps 753 mmHg 64%
    14:00 +7°C° 0.2 mm 4 mps 753 mmHg 70%
    15:00 +7°C° 0.2 mm 3 mps 753 mmHg 75%
    16:00 +5°C° 0.2 mm 3 mps 753 mmHg 81%
    17:00 +5°C° 0.1 mm 3 mps 753 mmHg 84%
    18:00 +4°C° 0.1 mm 3 mps 753 mmHg 86%
    19:00 +3°C° 0.1 mm 3 mps 754 mmHg 89%
    20:00 +3°C° 0.1 mm 3 mps 754 mmHg 90%
    21:00 +2°C° 0.1 mm 3 mps 754 mmHg 90%
    22:00 +2°C° 0.1 mm 3 mps 754 mmHg 91%
    23:00 +2°C° 0.1 mm 3 mps 754 mmHg 91%

    21 June, Friday

    Time Temperature Precipitation Wind Pressure Humidity
    00:00 +1°C° 0.1 mm 4 mps 754 mmHg 91%
    01:00 +1°C° 0.1 mm 4 mps 754 mmHg 91%
    02:00 +1°C° 0.1 mm 4 mps 754 mmHg 91%
    03:00 +2°C° 0.1 mm 3 mps 754 mmHg 90%
    04:00 +3°C° 0.1 mm 3 mps 754 mmHg 90%
    05:00 +3°C° 0.1 mm 3 mps 755 mmHg 90%
    06:00 +3°C° 0.1 mm 3 mps 755 mmHg 91%
    07:00 +4°C° 0.1 mm 2 mps 755 mmHg 91%
    08:00 +4°C° 0.1 mm 2 mps 755 mmHg 89%
    09:00 +5°C° 0.1 mm 2 mps 756 mmHg 87%
    10:00 +6°C° 0.1 mm 2 mps 756 mmHg 84%
    11:00 +7°C° 0 mm 2 mps 756 mmHg 78%
    12:00 +8°C° 0 mm 3 mps 756 mmHg 72%
    13:00 +9°C° 0 mm 3 mps 756 mmHg 65%
    14:00 +9°C° 0 mm 3 mps 756 mmHg 68%
    15:00 +8°C° 0 mm 3 mps 756 mmHg 72%
    16:00 +8°C° 0 mm 3 mps 756 mmHg 75%
    17:00 +8°C° 0.2 mm 3 mps 757 mmHg 79%
    18:00 +7°C° 0.2 mm 3 mps 757 mmHg 82%
    19:00 +7°C° 0.2 mm 3 mps 758 mmHg 86%
    20:00 +5°C° 0.1 mm 3 mps 758 mmHg 87%
    21:00 +5°C° 0.1 mm 3 mps 758 mmHg 88%
    22:00 +5°C° 0.1 mm 3 mps 758 mmHg 88%
    23:00 +6°C° 0.1 mm 2 mps 759 mmHg 88%

    22 June, Saturday

    Time Temperature Precipitation Wind Pressure Humidity
    00:00 +5°C° 0.1 mm 2 mps 759 mmHg 88%
    01:00 +5°C° 0.1 mm 2 mps 759 mmHg 88%
    02:00 +5°C° 0 mm 2 mps 759 mmHg 89%
    03:00 +4°C° 0 mm 2 mps 759 mmHg 89%
    04:00 +4°C° 0 mm 2 mps 759 mmHg 90%
    05:00 +3°C° 0 mm 2 mps 759 mmHg 89%
    06:00 +3°C° 0 mm 2 mps 760 mmHg 89%
    07:00 +3°C° 0 mm 2 mps 760 mmHg 88%
    08:00 +4°C° 0 mm 2 mps 760 mmHg 84%
    09:00 +5°C° 0 mm 2 mps 761 mmHg 79%
    10:00 +6°C° 0 mm 2 mps 761 mmHg 75%
    11:00 +8°C° 0 mm 1 mps 761 mmHg 69%
    12:00 +9°C° 0 mm 1 mps 761 mmHg 64%
    13:00 +10°C° 0 mm 1 mps 760 mmHg 59%
    14:00 +10°C° 0 mm 1 mps 761 mmHg 62%
    15:00 +9°C° 0 mm 1 mps 761 mmHg 65%
    16:00 +9°C° 0 mm 1 mps 761 mmHg 69%
    17:00 +8°C° 0 mm 1 mps 761 mmHg 71%
    18:00 +7°C° 0 mm 1 mps 761 mmHg 74%
    19:00 +7°C° 0 mm 1 mps 762 mmHg 76%
    20:00 +6°C° 0 mm 1 mps 762 mmHg 76%
    21:00 +6°C° 0 mm 1 mps 762 mmHg 76%
    22:00 +6°C° 0 mm 1 mps 762 mmHg 76%
    23:00 +5°C° 0 mm 1 mps 762 mmHg 78%
    Show more